Weather History for KCSQ - July, 2013

Change the Weather History Date:

Wednesday, July 31, 2013

  Actual Average Record
Temperature  
Mean Temperature 72 °F -  
Max Temperature 82 °F 84 °F 106 °F (1955)
Min Temperature 62 °F 63 °F 46 °F (1971)
Cooling Degree Days 7    
Growing Degree Days 22 (Base 50)    
Moisture  
Dew Point 64 °F    
Average Humidity 82    
Maximum Humidity 100    
Minimum Humidity 51    
Precipitation  
Precipitation 0.00 in - - ()
Sea Level Pressure  
Sea Level Pressure 30.11 in    
Wind  
Wind Speed 5 mph (NNW)    
Max Wind Speed 12 mph    
Max Gust Speed 12 mph    
Visibility 7 miles    
Events Fog    
Averages and records for this station are not official NWS values.
T = Trace of Precipitation, MM = Missing Value Source: NWS Daily Summary

Daily Weather History Graph

Daily Weather History Graph

Search for Another Location

Airport or City:

Trip Planner

Search our weather history database for the weather conditions in past years. The results will help you decide how hot, cold, wet, or windy it might be!

Date:

Astronomy

Jul. 31, 2013 Rise Set
Actual Time 6:12 AM CDT 8:34 PM CDT
Civil Twilight 5:41 AM CDT 9:05 PM CDT
Nautical Twilight 5:03 AM CDT 9:43 PM CDT
Astronomical Twilight 4:20 AM CDT 10:25 PM CDT
Moon 1:08 AM CDT (7/31) 3:51 PM CDT (7/31)
Length of Visible Light 15h 23m
Length of Day
14h 21m
Waning Crescent, 31% of the Moon is Illuminated
Jul 31
Waning Crescent
Aug 6
New
Aug 14
First Quarter
Aug 20
Full
Aug 28
Last Quarter

Hourly Weather History & Observations

Time (CDT) Temp. Heat Index Dew Point Humidity Pressure Visibility Wind Dir Wind Speed Gust Speed Precip Events Conditions
12:15 AM 68.0 °F - 66.2 °F 94% 30.10 in - North 6.9 mph - N/A   Overcast
12:35 AM 68.0 °F - 66.2 °F 94% 30.10 in 5.0 mi North 6.9 mph - N/A   Overcast
12:55 AM 68.0 °F - 66.2 °F 94% 30.10 in 5.0 mi North 5.8 mph - N/A   Overcast
1:15 AM 68.0 °F - 66.2 °F 94% 30.10 in 4.0 mi NNE 5.8 mph - N/A   Overcast
1:35 AM 66.2 °F - 66.2 °F 100% 30.10 in 5.0 mi NNE 5.8 mph - N/A   Overcast
1:55 AM 68.0 °F - 66.2 °F 94% 30.09 in 5.0 mi Calm Calm - N/A   Overcast
2:15 AM 66.2 °F - 66.2 °F 100% 30.09 in 4.0 mi SE 3.5 mph - N/A   Overcast
2:35 AM 66.2 °F - 66.2 °F 100% 30.10 in 3.0 mi Calm Calm - N/A   Overcast
2:55 AM 66.2 °F - 66.2 °F 100% 30.10 in 4.0 mi Calm Calm - N/A   Overcast
3:15 AM 66.2 °F - 64.4 °F 94% 30.09 in 3.0 mi NE 3.5 mph - N/A   Overcast
3:35 AM 64.4 °F - 64.4 °F 100% 30.09 in 3.0 mi NE 3.5 mph - N/A   Mostly Cloudy
3:55 AM 64.4 °F - 64.4 °F 100% 30.09 in 1.5 mi Calm Calm - N/A   Overcast
4:15 AM 64.4 °F - 64.4 °F 100% 30.10 in 0.2 mi NW 4.6 mph - N/A Fog Fog
4:35 AM 62.6 °F - 62.6 °F 100% 30.10 in 0.2 mi NW 3.5 mph - N/A Fog Fog
4:55 AM 64.4 °F - 64.4 °F 100% 30.11 in 0.2 mi NNW 3.5 mph - N/A Fog Fog
5:15 AM 64.4 °F - 64.4 °F 100% 30.11 in 0.2 mi North 4.6 mph - N/A Fog Fog
5:35 AM 64.4 °F - 64.4 °F 100% 30.11 in 0.2 mi North 4.6 mph - N/A Fog Fog
5:55 AM 64.4 °F - 64.4 °F 100% 30.12 in 0.2 mi North 5.8 mph - N/A Fog Fog
6:15 AM 64.4 °F - 64.4 °F 100% 30.12 in 0.2 mi North 5.8 mph - N/A Fog Fog
6:35 AM 64.4 °F - 64.4 °F 100% 30.12 in 0.2 mi North 4.6 mph - N/A Fog Fog
6:55 AM 64.4 °F - 64.4 °F 100% 30.13 in 0.2 mi NNE 4.6 mph - N/A Fog Fog
7:15 AM 64.4 °F - 64.4 °F 100% 30.13 in 2.0 mi NNE 5.8 mph - N/A   Overcast
7:35 AM 64.4 °F - 64.4 °F 100% 30.13 in 2.0 mi NNE 6.9 mph - N/A   Overcast
7:55 AM 64.4 °F - 64.4 °F 100% 30.14 in 1.8 mi North 4.6 mph - N/A   Overcast
8:15 AM 64.4 °F - 64.4 °F 100% 30.15 in 3.0 mi NNW 9.2 mph - N/A   Overcast
8:35 AM 64.4 °F - 64.4 °F 100% 30.15 in 3.0 mi North 4.6 mph - N/A   Overcast
8:55 AM 66.2 °F - 64.4 °F 94% 30.15 in 6.0 mi NNE 8.1 mph - N/A   Overcast
9:15 AM 66.2 °F - 64.4 °F 94% 30.15 in - NE 5.8 mph - N/A   Overcast
9:35 AM 68.0 °F - 64.4 °F 88% 30.15 in 9.0 mi NNE 9.2 mph - N/A   Overcast
9:55 AM 68.0 °F - 64.4 °F 88% 30.15 in 9.0 mi NNE 5.8 mph - N/A   Overcast
10:15 AM 68.0 °F - 64.4 °F 88% 30.16 in 10.0 mi Variable 4.6 mph - N/A   Overcast
10:35 AM 69.8 °F - 64.4 °F 83% 30.16 in 10.0 mi North 5.8 mph - N/A   Overcast
10:55 AM 71.6 °F - 64.4 °F 78% 30.15 in 10.0 mi NE 4.6 mph - N/A   Overcast
11:15 AM 71.6 °F - 66.2 °F 83% 30.15 in 10.0 mi ENE 5.8 mph - N/A   Mostly Cloudy
11:35 AM 73.4 °F - 66.2 °F 78% 30.14 in 10.0 mi Variable 4.6 mph - N/A   Scattered Clouds
12:15 PM 75.2 °F - 64.4 °F 69% 30.14 in 10.0 mi Variable 6.9 mph - N/A   Overcast
12:35 PM 77.0 °F - 66.2 °F 69% 30.13 in 10.0 mi NNE 4.6 mph - N/A   Mostly Cloudy
1:35 PM 78.8 °F - 64.4 °F 61% 30.12 in 10.0 mi Variable 6.9 mph - N/A   Scattered Clouds
2:15 PM 78.8 °F - 62.6 °F 57% 30.12 in 10.0 mi WNW 8.1 mph - N/A   Scattered Clouds
2:35 PM 78.8 °F - 62.6 °F 57% 30.11 in 10.0 mi Variable 5.8 mph 11.5 mph N/A   Mostly Cloudy
2:55 PM 80.6 °F 81.8 °F 62.6 °F 54% 30.11 in 10.0 mi Variable 5.8 mph - N/A   Scattered Clouds
3:35 PM 82.4 °F 83.9 °F 64.4 °F 54% 30.10 in 10.0 mi WNW 9.2 mph - N/A   Partly Cloudy
3:55 PM 80.6 °F 81.8 °F 62.6 °F 54% 30.10 in 10.0 mi West 6.9 mph - N/A   Scattered Clouds
4:15 PM 80.6 °F 81.8 °F 62.6 °F 54% 30.09 in 10.0 mi NW 6.9 mph - N/A   Partly Cloudy
4:55 PM 82.4 °F 83.4 °F 62.6 °F 51% 30.08 in 10.0 mi NW 8.1 mph - N/A   Scattered Clouds
5:15 PM 82.4 °F 83.4 °F 62.6 °F 51% 30.07 in 10.0 mi WNW 9.2 mph - N/A   Scattered Clouds
5:35 PM 82.4 °F 83.4 °F 62.6 °F 51% 30.07 in 10.0 mi NW 11.5 mph - N/A   Scattered Clouds
5:55 PM 82.4 °F 83.4 °F 62.6 °F 51% 30.07 in 10.0 mi NW 6.9 mph - N/A   Partly Cloudy
6:15 PM 80.6 °F 81.8 °F 62.6 °F 54% 30.07 in 10.0 mi NNW 8.1 mph - N/A   Clear
6:55 PM 80.6 °F 82.3 °F 64.4 °F 58% 30.06 in 10.0 mi NW 6.9 mph - N/A   Clear
7:35 PM 78.8 °F - 64.4 °F 61% 30.06 in 10.0 mi NW 4.6 mph - N/A   Clear
7:55 PM 77.0 °F - 66.2 °F 69% 30.06 in 10.0 mi WNW 4.6 mph - N/A   Clear
8:15 PM 77.0 °F - 66.2 °F 69% 30.07 in 10.0 mi NW 4.6 mph - N/A   Clear
8:55 PM 73.4 °F - 64.4 °F 73% 30.07 in 10.0 mi West 3.5 mph - N/A   Clear
9:15 PM 71.6 °F - 64.4 °F 78% 30.07 in 10.0 mi West 3.5 mph - N/A   Clear
9:35 PM 71.6 °F - 64.4 °F 78% 30.08 in 10.0 mi WNW 3.5 mph - N/A   Clear
9:55 PM 71.6 °F - 64.4 °F 78% 30.08 in 10.0 mi WNW 4.6 mph - N/A   Clear
10:15 PM 71.6 °F - 64.4 °F 78% 30.08 in 10.0 mi WNW 4.6 mph - N/A   Clear
10:35 PM 69.8 °F - 64.4 °F 83% 30.09 in 10.0 mi WNW 4.6 mph - N/A   Clear
10:55 PM 69.8 °F - 64.4 °F 83% 30.09 in 10.0 mi NW 3.5 mph - N/A   Clear
11:15 PM 69.8 °F - 64.4 °F 83% 30.09 in 10.0 mi WNW 5.8 mph - N/A   Clear
11:55 PM 68.0 °F - 62.6 °F 83% 30.10 in 10.0 mi West 4.6 mph - N/A   Clear